Temp
17 18 18 18 23 25 27 27 26 26 26 25 24 24 26 26 27 28 24 24 24 20 24 23 22 21 21 20 19 19 19 19 19 19 19 18 18 18 18 18 18 18 18 17 17 17 17 17 16
17 17 18 21 24 26 28 27 26 26 25 23 24 24 25 27 26 25 24 23 23 20 24 23 22 21 21 20 19 19 19 19 19 19 19 18 18 18 18 18 18 18 18 17 17 17 17 17 17
17 17 21 24 25 26 28 26 25 24 23 23 25 25 25 26 25 24 21 22 21 19 22 22 22 21 21 20 19 19 19 19 19 19 19 19 18 18 18 18 18 18 17 17 17 17 17 17 17
16 18 19 23 24 26 25 25 23 25 24 23 23 25 25 22 21 20 20 21 19 20 20 22 22 21 21 20 19 19 19 19 19 19 19 18 18 18 18 18 18 18 17 17 17 17 17 17 16
17 19 23 22 24 25 25 24 22 24 24 23 23 25 24 22 21 20 19 17 18 19 20 22 21 21 20 20 19 19 19 18 18 18 19 18 18 18 18 18 18 18 18 17 17 17 17 16 16
19 20 22 23 24 24 24 24 22 23 23 23 23 24 24 22 20 19 21 18 17 17 19 21 21 20 20 19 19 19 18 18 18 18 18 18 18 18 18 18 18 18 18 17 17 17 17 16 16
20 21 22 23 22 23 24 22 22 22 22 23 21 23 24 23 19 18 19 20 20 18 18 20 20 19 19 19 19 18 18 18 18 18 18 18 18 18 18 17 17 17 17 17 17 17 16 16 16
18 20 21 21 22 23 23 22 21 21 22 20 21 24 23 22 20 19 18 17 19 20 19 20 19 19 18 18 18 18 18 18 18 18 18 18 18 18 17 17 17 17 17 17 17 17 16 16 15
16 20 21 23 21 22 21 21 20 20 19 20 20 20 20 20 19 19 20 18 16 17 17 17 16 18 18 18 18 17 17 17 17 17 17 17 17 17 17 17 17 17 17 16 16 16 16 16 15
18 21 22 22 21 20 19 19 19 19 20 20 20 19 19 19 19 20 20 20 19 16 16 16 16 17 15 15 16 17 17 17 17 17 17 16 15 14 15 15 16 16 16 16 16 16 15 15 15
18 19 21 19 17 16 17 18 18 18 19 19 19 19 18 18 18 19 20 20 20 18 16 16 15 15 15 15 15 15 15 15 16 16 17 15 14 14 14 14 15 15 15 15 15 15 15 14 14
16 17 16 17 15 15 16 16 16 17 18 18 17 17 17 17 17 18 19 20 20 19 17 16 15 15 15 16 15 16 15 15 15 15 15 15 14 14 14 15 14 14 14 14 14 13 14 13 13
15 16 14 14 14 14 14 15 17 16 16 16 16 15 16 16 17 18 18 19 20 20 17 16 15 15 15 14 15 14 15 14 15 14 15 15 15 15 14 15 15 15 14 14 14 14 14 13 13
13 13 14 14 14 14 15 16 16 17 17 16 15 16 16 16 16 16 17 18 19 19 18 16 15 15 15 14 14 14 17 14 14 14 17 17 15 14 14 14 15 15 14 14 14 14 14 14 14
12 13 16 16 14 16 15 16 18 17 16 15 16 16 16 16 16 15 16 17 18 18 18 17 15 16 18 18 15 14 14 17 18 18 18 18 17 14 14 15 14 14 14 14 14 14 14 14 14
13 14 16 15 15 16 14 17 19 16 15 16 16 16 15 15 15 16 16 15 16 17 18 18 16 14 18 19 15 14 14 18 18 18 18 18 18 16 17 16 16 14 14 14 13 13 13 13 13
14 16 16 15 15 15 14 15 17 16 16 15 15 15 14 14 15 15 15 15 16 16 17 18 17 14 15 19 18 14 14 16 18 18 18 18 18 18 18 17 17 15 15 15 14 13 13 13 13
15 14 15 15 16 15 14 15 16 16 16 16 15 15 14 14 14 14 14 15 15 16 17 17 17 14 15 18 19 16 14 14 14 15 18 18 18 19 18 17 17 17 14 15 15 15 13 13 13
12 12 13 15 15 12 13 14 16 17 16 16 16 15 15 15 15 14 14 13 13 14 15 16 17 15 13 14 17 17 16 17 14 14 17 17 19 18 18 18 18 17 14 14 16 15 15 13 12
12 12 13 14 14 13 13 14 16 17 18 17 16 15 15 15 14 14 13 13 13 13 14 15 16 16 14 14 16 19 19 18 17 17 18 19 19 18 18 18 14 15 14 13 15 15 14 13 13
12 12 12 12 13 14 13 15 18 18 18 14 10 10 11 12 13 13 13 13 12 12 12 13 16 17 15 14 14 16 16 15 14 14 14 14 16 18 18 17 14 13 14 13 15 15 13 13 13
11 12 11 11 11 12 13 11 16 17 13 9 8 6 4 5 8 10 11 12 12 12 12 13 15 16 16 14 14 15 17 16 16 16 14 14 13 14 16 16 14 15 16 15 14 14 14 13 13
11 11 11 11 11 10 13 12 16 12 6 6 6 3 1 1 3 8 12 12 12 12 12 13 15 16 16 15 14 14 16 17 16 15 14 13 14 13 14 14 13 15 14 14 13 13 13 14 14
11 10 12 11 10 9 13 12 15 7 4 3 2 2 -0 0 1 2 3 7 9 9 11 12 13 16 16 14 14 14 15 15 15 14 14 13 14 16 17 16 16 14 13 13 13 14 13 13 13
11 11 13 12 12 13 14 13 7 7 5 3 2 0 -1 -1 -1 -0 0 1 2 4 7 8 11 13 14 14 14 14 14 14 14 14 14 15 15 15 15 16 16 16 15 14 15 15 14 13 13
10 10 11 9 12 12 14 13 9 8 6 3 0 -0 -1 -2 -2 -2 -1 -1 -0 1 2 4 7 11 12 13 13 14 14 16 15 13 16 16 15 14 13 14 15 14 14 15 15 14 14 14 14
7 10 10 8 11 10 14 12 10 8 6 3 -0 -1 -2 -3 -3 -3 -3 -2 -1 -1 -0 1 3 6 9 10 11 11 12 13 13 13 13 12 12 13 12 13 13 14 15 14 15 14 16 15 15
10 11 10 9 9 10 14 8 6 4 3 2 -0 -1 -2 -3 -3 -4 -4 -3 -3 -2 -2 -1 1 4 5 7 9 8 10 11 12 12 12 12 12 13 14 14 15 15 14 14 14 14 15 14 13
11 10 9 9 10 10 11 6 2 2 1 1 -0 -2 -3 -3 -4 -4 -4 -4 -4 -3 -3 -2 0 4 5 2 5 9 10 10 10 10 11 11 12 13 13 13 14 14 14 14 13 14 14 13 13
10 8 8 8 10 10 9 5 2 1 0 -1 -1 -2 -3 -4 -4 -5 -5 -5 -4 -5 -4 -1 -0 3 5 4 7 7 7 8 10 10 11 11 12 12 14 14 14 14 13 14 13 13 13 11 12
Height
1521 1522 1523 1524 1521 1510 1499 1498 1498 1501 1502 1504 1504 1504 1499 1497 1494 1491 1491 1491 1491 1492 1493 1497 1501 1503 1507 1511 1514 1517 1519 1521 1523 1525 1526 1528 1530 1531 1532 1533 1535 1536 1537 1538 1540 1541 1543 1544 1545
1521 1523 1525 1522 1515 1506 1486 1493 1499 1497 1501 1505 1503 1501 1500 1495 1497 1495 1494 1489 1488 1491 1493 1496 1500 1503 1507 1510 1514 1517 1520 1522 1524 1525 1527 1529 1531 1532 1534 1534 1536 1537 1538 1539 1541 1542 1543 1545 1545
1522 1522 1523 1513 1505 1501 1490 1498 1499 1503 1504 1504 1501 1501 1499 1496 1497 1495 1492 1488 1487 1490 1493 1496 1500 1503 1505 1508 1513 1517 1520 1522 1525 1527 1527 1529 1531 1532 1534 1534 1537 1538 1540 1541 1542 1543 1544 1545 1547
1523 1525 1524 1514 1502 1494 1500 1500 1503 1501 1502 1504 1503 1500 1500 1499 1498 1495 1490 1487 1488 1489 1492 1496 1500 1502 1506 1508 1512 1516 1520 1522 1525 1527 1528 1531 1532 1533 1535 1535 1537 1539 1541 1542 1543 1544 1545 1546 1547
1522 1521 1510 1509 1500 1495 1498 1501 1504 1501 1500 1502 1503 1497 1499 1499 1498 1493 1488 1487 1490 1490 1492 1496 1500 1502 1506 1508 1511 1515 1519 1522 1525 1526 1528 1531 1533 1534 1536 1537 1538 1539 1541 1543 1544 1545 1546 1547 1548
1519 1517 1509 1501 1495 1495 1497 1499 1504 1502 1501 1500 1500 1498 1496 1498 1495 1493 1490 1490 1493 1493 1494 1496 1499 1502 1505 1508 1511 1514 1518 1521 1524 1527 1528 1530 1533 1535 1536 1537 1539 1540 1541 1543 1544 1546 1547 1548 1549
1516 1510 1501 1496 1499 1497 1495 1499 1502 1500 1499 1497 1501 1497 1495 1495 1494 1493 1491 1491 1492 1493 1494 1496 1498 1502 1505 1507 1510 1514 1517 1520 1523 1527 1529 1530 1532 1534 1536 1537 1539 1540 1542 1543 1545 1546 1548 1549 1550
1516 1511 1502 1499 1498 1493 1493 1498 1500 1501 1498 1500 1499 1492 1493 1494 1494 1493 1491 1491 1491 1492 1493 1495 1498 1500 1503 1506 1510 1513 1516 1519 1521 1525 1529 1531 1533 1533 1535 1537 1538 1540 1542 1543 1545 1546 1548 1549 1550
1517 1507 1496 1489 1494 1491 1495 1497 1499 1500 1499 1498 1498 1497 1494 1493 1493 1492 1492 1491 1491 1491 1492 1494 1497 1499 1502 1504 1507 1511 1515 1518 1520 1523 1527 1531 1532 1534 1535 1536 1538 1540 1542 1544 1545 1546 1548 1549 1550
1512 1501 1491 1492 1496 1497 1500 1499 1497 1498 1495 1494 1494 1493 1492 1492 1491 1491 1490 1491 1491 1489 1490 1493 1494 1496 1500 1503 1505 1508 1512 1515 1517 1520 1524 1527 1531 1533 1535 1536 1538 1540 1541 1543 1545 1546 1547 1549 1549
1507 1501 1496 1500 1503 1504 1501 1499 1497 1493 1489 1492 1491 1490 1491 1491 1488 1487 1487 1487 1487 1488 1489 1490 1491 1493 1497 1501 1502 1506 1508 1511 1514 1516 1520 1524 1529 1531 1533 1535 1536 1538 1540 1542 1543 1545 1546 1548 1551
1509 1505 1507 1504 1506 1504 1500 1499 1494 1491 1485 1488 1488 1487 1486 1486 1484 1482 1481 1482 1483 1484 1484 1484 1485 1487 1491 1497 1496 1498 1503 1507 1510 1513 1516 1520 1524 1527 1530 1533 1534 1537 1538 1541 1542 1544 1546 1548 1548
1508 1505 1508 1506 1505 1502 1497 1493 1490 1484 1484 1484 1481 1481 1481 1479 1478 1477 1477 1476 1478 1478 1478 1479 1480 1482 1486 1490 1494 1495 1498 1501 1506 1509 1511 1516 1520 1523 1527 1530 1533 1535 1536 1539 1541 1544 1545 1545 1545
1509 1508 1505 1501 1499 1496 1491 1486 1487 1479 1479 1480 1479 1476 1475 1474 1473 1472 1470 1469 1470 1472 1473 1474 1474 1477 1480 1483 1488 1490 1493 1496 1501 1504 1506 1510 1515 1519 1523 1526 1529 1531 1533 1536 1540 1542 1544 1545 1546
1508 1503 1495 1494 1495 1490 1488 1478 1470 1472 1476 1476 1473 1471 1468 1467 1466 1465 1465 1463 1463 1463 1466 1468 1469 1471 1472 1475 1482 1484 1488 1491 1494 1497 1501 1505 1509 1513 1517 1521 1526 1527 1529 1533 1536 1538 1540 1542 1543
1503 1498 1488 1492 1493 1488 1491 1460 1463 1471 1473 1470 1468 1463 1460 1456 1455 1457 1458 1456 1457 1457 1458 1460 1462 1463 1466 1470 1476 1480 1484 1486 1490 1494 1497 1500 1504 1509 1512 1515 1518 1524 1524 1528 1531 1533 1536 1538 1540
1497 1485 1486 1488 1492 1491 1488 1460 1467 1469 1467 1465 1462 1460 1456 1448 1443 1451 1450 1448 1448 1450 1451 1452 1454 1456 1457 1462 1469 1475 1479 1480 1483 1488 1491 1495 1499 1503 1506 1510 1513 1518 1519 1523 1526 1528 1531 1533 1535
1488 1491 1486 1487 1485 1485 1480 1460 1459 1457 1461 1455 1453 1451 1448 1443 1438 1441 1439 1441 1441 1441 1443 1443 1446 1447 1449 1453 1459 1466 1472 1475 1479 1481 1485 1489 1493 1497 1501 1505 1509 1513 1515 1517 1520 1523 1526 1528 1530
1501 1496 1486 1484 1484 1487 1479 1466 1449 1448 1454 1449 1447 1443 1439 1434 1431 1432 1428 1430 1430 1429 1432 1434 1434 1435 1444 1442 1444 1453 1459 1466 1472 1475 1478 1483 1487 1491 1495 1500 1504 1507 1510 1512 1514 1517 1521 1523 1527
1500 1493 1485 1481 1485 1485 1475 1459 1444 1441 1439 1442 1442 1437 1430 1424 1422 1421 1420 1418 1418 1418 1419 1423 1424 1427 1430 1437 1434 1443 1452 1459 1464 1469 1472 1477 1481 1486 1490 1495 1500 1502 1506 1508 1508 1512 1515 1519 1522
1494 1493 1489 1483 1485 1478 1473 1448 1428 1434 1430 1442 1452 1444 1434 1426 1417 1412 1410 1407 1407 1408 1407 1410 1413 1415 1418 1428 1433 1437 1446 1455 1459 1464 1468 1471 1474 1479 1485 1491 1494 1498 1499 1502 1505 1509 1513 1515 1518
1494 1490 1491 1485 1480 1477 1475 1466 1435 1426 1442 1454 1446 1446 1434 1424 1418 1408 1399 1393 1394 1393 1397 1399 1402 1404 1410 1417 1424 1423 1429 1438 1446 1453 1462 1467 1469 1473 1477 1484 1487 1489 1493 1496 1501 1506 1508 1512 1513
1491 1491 1490 1485 1478 1480 1463 1467 1428 1441 1453 1446 1444 1438 1436 1427 1419 1401 1380 1379 1382 1384 1387 1389 1392 1396 1402 1409 1414 1417 1423 1430 1442 1448 1456 1458 1461 1467 1471 1475 1479 1482 1486 1491 1499 1501 1504 1506 1509
1494 1490 1477 1479 1482 1481 1452 1458 1429 1463 1469 1463 1456 1449 1440 1428 1425 1410 1393 1386 1382 1379 1382 1382 1383 1388 1394 1399 1405 1411 1417 1426 1434 1439 1445 1451 1455 1459 1462 1467 1471 1475 1480 1483 1490 1497 1498 1498 1502
1491 1482 1465 1464 1463 1451 1445 1447 1475 1471 1474 1471 1462 1455 1446 1440 1433 1418 1404 1398 1392 1377 1380 1375 1374 1378 1383 1392 1397 1404 1413 1417 1426 1432 1436 1443 1448 1451 1455 1459 1464 1468 1474 1468 1479 1479 1489 1492 1495
1489 1489 1481 1481 1458 1454 1442 1440 1465 1475 1476 1474 1467 1459 1452 1446 1436 1425 1413 1405 1395 1383 1380 1377 1377 1378 1381 1387 1392 1399 1408 1408 1414 1426 1430 1438 1444 1451 1454 1456 1460 1464 1467 1471 1468 1472 1481 1483 1485
1496 1486 1487 1488 1466 1467 1436 1447 1462 1474 1474 1474 1471 1461 1456 1449 1439 1427 1416 1407 1398 1391 1384 1383 1383 1380 1381 1386 1390 1395 1402 1401 1410 1421 1425 1433 1439 1443 1449 1450 1453 1456 1457 1460 1464 1468 1469 1472 1474
1489 1487 1481 1482 1475 1462 1433 1466 1481 1483 1483 1478 1474 1467 1460 1450 1442 1431 1420 1412 1404 1396 1393 1391 1385 1383 1383 1384 1393 1393 1395 1401 1412 1420 1425 1429 1434 1437 1442 1446 1448 1449 1451 1454 1457 1459 1461 1462 1464
1484 1483 1487 1483 1474 1459 1447 1479 1502 1497 1493 1486 1481 1475 1465 1455 1448 1437 1425 1411 1407 1403 1400 1398 1394 1392 1393 1403 1400 1385 1400 1407 1414 1417 1424 1429 1432 1434 1437 1440 1442 1444 1445 1448 1450 1451 1452 1452 1454
1492 1494 1489 1483 1466 1463 1460 1485 1503 1500 1497 1492 1486 1477 1468 1461 1449 1443 1432 1420 1411 1411 1407 1397 1395 1398 1400 1403 1401 1405 1409 1411 1412 1416 1421 1426 1428 1432 1432 1434 1434 1436 1438 1439 1440 1440 1441 1443 1443
Wind_Speed
1 1 1 1 5 5 7 3 2 5 4 4 7 6 6 10 5 7 6 14 15 22 28 28 27 26 24 22 20 22 23 24 23 23 22 21 19 17 18 18 18 17 16 14 13 12 12 11 10
3 3 2 2 6 7 4 2 5 2 0 7 5 5 5 2 5 12 13 15 14 22 30 31 29 27 25 23 21 21 22 24 24 24 23 21 19 18 19 18 18 17 16 14 13 12 11 11 11
5 7 6 4 6 11 5 3 8 6 6 6 3 6 4 5 13 10 12 18 15 23 30 32 30 28 26 24 22 21 22 23 24 24 23 21 20 19 19 19 17 16 14 14 12 11 11 11 10
4 4 3 7 12 7 4 1 2 9 2 1 6 9 6 8 13 14 18 13 16 26 28 31 30 28 27 25 23 21 21 23 24 23 22 21 20 19 19 19 17 15 14 13 12 11 11 11 10
4 4 7 11 15 15 9 12 13 14 13 7 12 6 9 4 14 20 14 5 17 25 28 29 30 28 27 25 23 22 21 23 24 23 22 22 21 20 18 18 17 15 14 12 12 12 11 11 10
7 5 8 13 14 13 12 14 11 12 9 10 9 10 8 1 16 20 21 6 13 19 26 30 30 28 27 25 24 23 22 23 24 23 23 22 21 20 19 17 17 15 14 13 12 12 11 10 10
10 7 13 13 13 14 16 4 11 13 13 12 7 12 9 4 19 20 18 9 17 20 24 30 31 29 27 25 24 23 23 24 24 24 23 23 22 20 19 18 17 15 14 13 13 12 11 10 9
7 6 14 14 13 15 12 10 11 12 11 7 2 3 6 15 22 18 13 9 14 23 27 29 32 31 29 27 25 24 24 24 25 24 24 23 22 20 19 19 17 16 15 14 13 12 10 9 9
5 7 12 16 14 14 6 13 12 14 15 17 12 14 20 24 16 15 13 10 9 20 24 25 27 31 31 29 28 26 25 26 26 25 25 24 23 22 21 20 18 17 15 15 14 13 11 9 9
9 10 12 7 9 11 10 16 18 19 22 20 22 19 11 10 15 17 16 14 14 18 23 23 26 29 27 24 28 30 29 29 29 29 29 28 23 22 20 20 19 17 17 16 15 14 12 11 10
4 11 10 9 8 8 15 20 24 25 22 23 22 21 20 23 27 26 22 19 16 18 21 24 25 27 26 23 26 26 28 30 31 32 32 27 22 21 21 19 22 20 19 19 18 17 15 12 11
9 7 11 10 11 16 20 24 26 29 33 30 27 28 30 30 31 31 29 24 19 17 23 26 27 29 28 25 28 34 29 29 28 29 32 28 25 23 23 20 20 19 20 17 18 16 14 14 13
10 9 9 14 18 22 25 26 25 30 34 29 24 23 26 25 24 25 25 24 23 22 23 28 29 32 30 30 26 31 31 32 29 30 34 30 27 25 24 21 20 20 19 19 18 16 16 15 14
3 11 17 17 19 22 21 21 19 15 18 25 19 18 17 20 20 22 25 25 22 23 24 25 30 33 33 32 28 31 38 33 31 30 37 38 29 26 25 22 21 22 23 19 17 16 15 15 13
9 13 12 7 4 12 15 18 12 7 10 19 22 20 24 29 29 27 24 25 26 23 24 27 29 36 41 41 33 31 32 40 42 39 39 39 37 28 26 26 22 22 24 21 18 18 16 16 15
8 7 5 8 10 7 8 18 9 18 12 17 24 38 41 38 38 36 33 31 28 27 27 26 30 34 43 44 37 29 30 42 43 41 40 40 40 34 32 29 30 21 25 23 20 19 18 17 16
5 8 11 9 4 10 8 27 13 25 34 35 35 33 36 42 43 35 34 36 35 32 29 29 32 34 40 46 44 32 29 37 41 43 42 41 39 38 35 33 32 27 25 26 24 21 20 19 18
10 12 11 13 6 15 21 32 23 35 30 30 30 31 31 35 43 39 39 36 36 36 33 30 33 36 38 45 48 41 30 33 30 35 41 40 41 39 39 35 32 30 23 26 29 28 22 22 18
9 13 18 14 16 14 12 27 34 34 27 29 32 32 35 38 35 35 44 39 37 39 37 35 34 38 38 42 51 50 46 44 35 34 38 37 40 41 40 36 31 31 26 26 30 30 29 26 20
11 14 18 13 2 18 17 29 31 23 15 16 22 32 37 38 39 36 35 43 39 40 38 38 37 40 40 41 52 54 52 45 42 40 37 38 38 39 39 36 27 28 25 25 30 31 30 27 28
13 13 16 21 18 20 11 18 10 17 16 35 34 36 38 41 44 39 38 37 41 40 41 38 39 41 41 41 41 49 44 30 28 30 33 33 35 38 36 33 28 24 26 25 29 29 30 28 30
12 5 10 18 17 7 12 9 14 17 23 26 34 33 38 40 40 43 45 43 40 42 39 37 38 41 42 40 42 48 54 42 38 40 29 29 33 31 31 32 31 30 29 27 25 25 28 25 28
6 9 15 18 18 16 7 7 9 21 26 30 30 42 38 37 37 37 29 30 36 35 36 33 37 38 41 40 41 44 49 47 33 27 27 32 34 31 33 33 34 32 28 21 15 18 22 28 30
12 15 17 3 3 5 5 4 8 14 18 25 29 38 44 41 35 29 26 16 6 8 20 25 27 33 40 42 40 39 41 31 29 30 32 29 29 30 33 37 38 35 28 13 14 28 25 25 31
4 10 4 4 5 6 2 10 11 21 21 17 20 29 38 42 35 29 27 23 18 15 8 9 23 31 32 38 40 36 31 32 33 30 31 29 24 26 30 36 37 38 32 36 39 42 41 30 33
7 4 4 6 8 15 16 3 6 21 26 27 29 30 34 40 37 33 29 26 26 24 22 18 16 25 33 33 35 34 38 38 31 29 25 24 21 22 24 32 33 33 36 31 28 32 34 34 41
2 3 3 6 15 7 4 9 11 25 23 28 28 32 33 37 39 38 34 32 30 28 26 23 22 25 27 26 24 23 26 25 22 20 22 24 27 29 28 27 28 33 32 31 33 36 34 33 41
6 7 3 3 5 8 8 7 11 23 22 22 21 28 31 37 39 39 36 33 31 30 26 25 26 25 24 21 18 18 17 15 17 20 21 25 27 27 26 27 32 33 35 37 41 44 43 45 47
3 3 4 5 6 5 7 5 7 14 15 18 22 27 29 34 35 37 35 35 35 31 28 27 28 26 24 16 15 19 16 16 15 14 13 16 20 24 27 28 31 34 35 36 39 43 44 45 44
6 7 7 4 2 9 8 5 12 11 15 19 22 25 29 31 34 37 37 34 34 33 31 34 32 30 26 21 18 14 11 10 11 9 8 10 13 18 22 26 29 31 34 36 38 40 43 45 45
Wind_Direction
216 261 141 223 241 243 246 210 298 213 198 172 325 271 289 311 309 314 309 314 240 187 193 191 192 186 190 184 182 178 179 178 176 176 174 173 168 164 161 152 150 150 152 153 153 152 152 152 152
160 155 176 243 255 236 256 120 224 233 168 300 282 302 248 316 307 300 304 305 226 189 193 192 192 188 193 188 187 185 182 181 178 177 175 175 171 169 163 155 155 155 156 158 156 157 154 153 157
149 157 241 251 251 251 326 107 89 70 311 274 316 319 299 330 332 307 313 307 202 186 190 195 194 190 196 193 192 191 187 183 181 178 178 176 175 172 166 159 160 158 161 161 160 162 161 163 163
157 188 213 241 242 255 273 131 283 299 318 173 320 308 301 7 337 318 308 291 189 185 187 196 196 193 199 196 195 195 191 187 184 181 179 179 178 173 170 161 162 161 164 165 164 164 164 160 159
181 228 240 243 251 260 253 265 288 296 300 288 309 296 298 355 9 1 337 219 186 185 189 194 198 197 201 200 198 197 195 192 189 185 183 181 180 176 171 167 164 164 169 170 168 164 162 160 158
206 259 234 248 244 247 266 282 285 292 301 304 283 298 290 24 2 359 1 226 195 193 194 196 198 200 203 202 201 199 197 195 193 191 188 184 183 179 175 173 169 170 172 172 170 166 163 162 162
259 245 262 275 267 261 268 273 283 301 297 301 318 284 290 273 348 345 344 309 222 204 202 199 199 201 207 204 203 202 199 196 196 195 193 189 186 182 180 178 173 174 175 177 176 171 168 164 166
245 261 262 250 263 265 283 281 292 298 301 295 293 298 303 315 326 333 330 318 248 224 206 204 200 202 205 204 204 203 200 199 197 197 198 195 190 187 185 183 180 178 180 183 184 179 176 172 174
224 250 253 259 263 273 290 297 290 302 281 282 285 278 285 302 311 321 322 316 254 225 211 205 202 204 206 205 202 202 202 202 198 198 199 197 193 191 189 190 187 186 186 189 192 190 187 183 186
232 251 280 323 289 285 287 286 301 300 289 284 289 287 276 290 304 305 305 299 280 237 215 209 205 206 202 201 201 199 201 201 199 198 198 198 194 193 192 197 194 192 192 193 197 200 196 195 196
225 260 332 258 288 282 286 284 294 289 280 280 285 282 280 291 292 292 288 283 285 253 226 212 210 206 202 202 200 198 199 199 201 200 200 196 197 197 192 196 196 196 196 197 199 206 205 196 197
262 263 277 287 286 293 286 291 280 276 279 285 282 280 280 282 281 280 278 276 272 261 232 221 211 208 205 203 205 202 195 197 198 200 200 195 198 201 196 196 194 194 199 198 200 206 202 213 209
246 283 279 279 281 279 283 274 274 280 282 287 285 284 281 280 276 277 276 272 267 258 240 224 215 213 208 204 206 204 199 200 198 199 202 197 200 202 200 201 197 196 201 201 203 207 212 215 219
324 280 286 288 280 283 271 280 277 265 285 291 293 293 291 288 286 279 271 268 261 254 244 232 220 216 211 209 205 209 205 205 200 202 207 208 201 204 203 202 200 200 205 204 207 211 215 218 223
276 287 289 290 192 296 303 275 243 312 287 287 292 288 292 286 283 276 273 268 259 252 243 237 225 224 222 218 208 210 209 210 209 208 208 210 210 207 205 205 205 210 206 202 206 211 210 216 222
277 269 279 143 294 310 305 283 292 319 291 283 283 294 293 287 280 274 269 266 264 254 246 236 229 222 230 226 212 210 211 212 213 212 213 213 215 213 215 216 215 209 218 209 208 210 211 215 221
186 301 315 315 286 305 298 294 298 291 286 289 285 284 284 288 283 280 272 264 262 258 249 238 229 222 224 229 221 210 210 214 215 215 216 216 217 218 221 221 222 212 223 221 217 213 214 216 217
313 310 296 298 318 291 297 290 299 293 296 290 288 285 282 282 281 281 273 268 261 256 250 240 231 223 226 226 223 214 208 214 212 215 217 219 219 220 222 223 224 222 214 222 226 227 220 220 219
298 288 288 301 317 315 300 295 292 295 301 296 299 299 297 294 296 279 278 269 259 257 251 243 230 223 219 219 219 216 217 219 211 211 215 218 220 222 224 226 225 222 217 217 226 228 228 227 223
282 288 294 310 254 323 304 295 289 293 314 310 321 314 306 303 297 293 277 268 262 254 251 243 234 222 215 219 223 223 223 221 224 222 224 224 225 224 226 227 222 225 217 220 227 226 226 226 228
276 283 292 296 313 293 307 291 342 317 341 0 348 333 321 310 298 293 279 268 262 254 249 244 234 222 215 217 210 214 217 210 212 221 220 220 223 226 227 226 221 223 223 227 233 231 232 227 233
283 326 295 299 314 313 337 293 313 359 6 348 346 351 348 338 320 303 281 265 261 253 250 243 231 221 217 211 209 206 211 206 214 220 218 216 220 218 225 223 226 226 229 230 237 240 240 233 238
286 312 297 290 288 310 214 222 310 6 356 358 356 353 347 348 333 335 325 264 259 251 244 244 230 222 215 214 209 207 210 216 216 213 217 219 224 219 223 222 223 224 219 218 246 266 262 253 248
286 293 280 300 299 260 251 248 55 12 358 355 354 355 352 350 345 353 9 3 293 246 246 235 227 220 213 211 204 204 205 202 201 207 213 222 226 224 227 229 227 221 205 200 253 272 273 267 267
257 303 291 243 214 276 120 288 57 18 10 354 353 353 358 354 349 360 20 16 20 69 101 153 190 195 192 198 197 197 198 199 205 215 223 228 227 224 223 225 227 229 230 257 257 240 241 253 256
313 316 324 298 317 316 305 281 69 21 8 4 1 360 3 357 356 6 17 26 32 55 65 92 123 158 174 183 186 193 197 206 199 211 220 225 220 223 230 227 230 237 242 237 242 220 227 241 250
71 254 42 272 263 263 284 60 147 4 9 5 359 8 2 0 359 7 19 27 34 43 56 81 88 109 129 140 150 156 166 175 184 207 211 210 201 210 206 209 220 231 236 235 225 222 231 243 251
285 341 254 215 282 312 302 67 356 356 357 358 359 0 360 4 2 9 18 28 36 41 45 51 72 81 95 105 127 127 135 157 185 190 195 202 203 206 215 218 221 226 222 219 228 234 242 248 252
324 261 289 281 262 290 310 82 3 357 354 357 356 356 0 6 4 8 15 33 39 46 45 48 66 75 79 71 89 103 130 145 158 164 185 201 212 220 226 230 231 234 239 241 243 246 248 251 254
70 354 299 275 288 290 279 93 19 4 358 0 356 356 360 8 13 19 17 29 34 37 39 49 55 64 62 56 63 75 98 122 139 162 191 223 235 242 241 241 245 248 248 249 249 250 249 248 250